Barnwell, SC

2:18 PM EDT on July 22, 2017 (GMT -0400)
Barnwell County

Weather History for KBNL - February, 2013

Change the Weather History Date:

Monday, February 25, 2013

  Actual Average (KOGB) Record (KOGB)
Temperature  
Mean Temperature 45 °F -  
Max Temperature 48 °F 61 °F 82 °F (1982)
Min Temperature 42 °F 37 °F 13 °F (1967)
Degree Days  
Heating Degree Days 20    
Moisture  
Dew Point 39 °F    
Average Humidity 81    
Maximum Humidity 100    
Minimum Humidity 58    
Precipitation  
Precipitation 0.03 in - - ()
Sea Level Pressure  
Sea Level Pressure 30.02 in    
Wind  
Wind Speed 4 mph (NE)    
Max Wind Speed 18 mph    
Max Gust Speed 22 mph    
Visibility 9 miles    
Events Rain    
Averages and records for this station are not official NWS values.
T = Trace of Precipitation, MM = Missing Value Source: NWS Daily Summary

Daily Weather History Graph

Daily Weather History Graph

Search for Another Location

Airport or City:

Trip Planner

Search our weather history database for the weather conditions in past years. The results will help you decide how hot, cold, wet, or windy it might be!

Date:

Astronomy

Feb. 25, 2013 Rise Set
Actual Time 6:58 AM EST 6:19 PM EST
Civil Twilight 6:33 AM EST 6:44 PM EST
Nautical Twilight 6:04 AM EST 7:13 PM EST
Astronomical Twilight 5:35 AM EST 7:41 PM EST
Moon 6:27 PM EST (2/25) 6:29 AM EST (2/25)
Length of Visible Light 12h 11m
Length of Day
11h 21m
Full, 100% of the Moon is Illuminated
Feb 25
Full
Feb 25
Full
Mar 4
Last Quarter
Mar 11
New
Mar 19
First Quarter

Hourly Weather History & Observations

Time (EST) Temp. Windchill Dew Point Humidity Pressure Visibility Wind Dir Wind Speed Gust Speed Precip Events Conditions
12:15 AM 42.8 °F - 41.0 °F 93% 30.00 in 10.0 mi Calm Calm - N/A   Clear
12:35 AM 42.8 °F - 41.0 °F 93% 29.98 in 10.0 mi Calm Calm - N/A   Clear
12:55 AM 44.6 °F - 42.8 °F 93% 29.97 in 10.0 mi Calm Calm - N/A   Clear
1:15 AM 46.4 °F - 42.8 °F 87% 29.97 in 10.0 mi Calm Calm - N/A   Clear
1:35 AM 48.2 °F - 42.8 °F 82% 29.98 in 10.0 mi Calm Calm - N/A   Clear
1:55 AM 46.4 °F - 42.8 °F 87% 29.97 in 10.0 mi Calm Calm - N/A   Clear
2:15 AM 46.4 °F - 44.6 °F 93% 29.96 in 10.0 mi Calm Calm - N/A   Clear
2:35 AM 46.4 °F - 44.6 °F 93% 29.97 in 10.0 mi Calm Calm - N/A   Clear
2:55 AM 44.6 °F - 44.6 °F 100% 29.97 in 10.0 mi Calm Calm - N/A   Clear
3:15 AM 44.6 °F - 44.6 °F 100% 29.97 in 10.0 mi Calm Calm - N/A   Clear
3:35 AM 46.4 °F - 44.6 °F 93% 29.97 in 10.0 mi Calm Calm - N/A   Clear
3:55 AM 46.4 °F - 44.6 °F 93% 29.97 in 10.0 mi Calm Calm - N/A   Clear
4:15 AM 46.4 °F - 44.6 °F 93% 29.96 in 10.0 mi Calm Calm - N/A   Clear
4:35 AM 48.2 °F - 44.6 °F 87% 29.97 in 10.0 mi NE 9.2 mph - N/A   Clear
5:15 AM 48.2 °F - 44.6 °F 87% 29.97 in 10.0 mi NE 5.8 mph - N/A   Clear
5:35 AM 48.2 °F - 44.6 °F 87% 29.99 in 10.0 mi ENE 5.8 mph - N/A   Clear
6:15 AM 48.2 °F - 42.8 °F 82% 30.04 in 10.0 mi Calm Calm - N/A   Clear
6:35 AM 48.2 °F - 42.8 °F 82% 30.06 in 10.0 mi Calm Calm - N/A   Partly Cloudy
6:55 AM 46.4 °F - 42.8 °F 87% 30.04 in 10.0 mi Calm Calm - N/A   Clear
7:15 AM 46.4 °F - 39.2 °F 76% 30.03 in 10.0 mi Calm Calm - N/A   Clear
7:35 AM 46.4 °F - 37.4 °F 71% 30.04 in 10.0 mi Calm Calm - N/A   Clear
7:55 AM 46.4 °F 42.4 °F 35.6 °F 66% 30.04 in 10.0 mi ENE 8.1 mph - N/A   Clear
8:15 AM 48.2 °F - 35.6 °F 62% 30.04 in 10.0 mi ENE 8.1 mph - N/A   Clear
8:35 AM 48.2 °F - 33.8 °F 58% 30.07 in 10.0 mi NE 5.8 mph - N/A   Partly Cloudy
8:55 AM 48.2 °F - 33.8 °F 58% 30.08 in 10.0 mi NE 8.1 mph - N/A   Mostly Cloudy
9:15 AM 48.2 °F - 33.8 °F 58% 30.08 in 10.0 mi NE 8.1 mph - N/A   Scattered Clouds
9:35 AM 48.2 °F - 33.8 °F 58% 30.06 in 10.0 mi NE 8.1 mph - N/A   Clear
9:55 AM 48.2 °F - 33.8 °F 58% 30.06 in 10.0 mi ENE 9.2 mph - N/A   Clear
10:15 AM 48.2 °F - 33.8 °F 58% 30.08 in 10.0 mi ENE 6.9 mph - N/A   Clear
11:15 AM 48.2 °F - 33.8 °F 58% 30.10 in 10.0 mi ENE 8.1 mph - N/A   Scattered Clouds
11:35 AM 48.2 °F - 35.6 °F 62% 30.09 in 10.0 mi ENE 9.2 mph - N/A   Light Drizzle
11:55 AM 46.4 °F 42.9 °F 37.4 °F 71% 30.08 in 9.0 mi ENE 6.9 mph - N/A Rain Light Rain
12:15 PM 46.4 °F 42.9 °F 39.2 °F 76% 30.07 in 7.0 mi ENE 6.9 mph - N/A Rain Light Rain
12:35 PM 46.4 °F 42.9 °F 39.2 °F 76% 30.07 in 5.0 mi ENE 6.9 mph - N/A Rain Light Rain
12:55 PM 44.6 °F 40.2 °F 41.0 °F 87% 30.07 in 6.0 mi ENE 8.1 mph - N/A Rain Light Rain
1:15 PM 44.6 °F 40.7 °F 41.0 °F 87% 30.06 in 6.0 mi ENE 6.9 mph - 0.01 in Rain Light Rain
1:35 PM 44.6 °F 41.4 °F 42.8 °F 93% 30.05 in 6.0 mi ENE 5.8 mph - 0.02 in Rain Light Rain
1:55 PM 44.6 °F 41.4 °F 42.8 °F 93% 30.05 in 5.0 mi NE 5.8 mph - 0.02 in Rain Light Rain
2:15 PM 44.6 °F 40.2 °F 42.8 °F 93% 30.04 in 5.0 mi NE 8.1 mph - N/A Rain Light Rain
2:35 PM 44.6 °F 38.8 °F 42.8 °F 93% 30.03 in 6.0 mi ENE 11.5 mph - 0.01 in Rain Light Rain
2:55 PM 44.6 °F 40.2 °F 42.8 °F 93% 30.03 in 5.0 mi NE 8.1 mph - 0.01 in Rain Light Rain
3:15 PM 44.6 °F 40.7 °F 42.8 °F 93% 30.03 in 5.0 mi ENE 6.9 mph - N/A   Light Drizzle
3:35 PM 44.6 °F 40.2 °F 42.8 °F 93% 30.02 in 5.0 mi East 8.1 mph - N/A   Light Drizzle
3:55 PM 42.8 °F 34.5 °F 42.8 °F 100% 29.96 in 5.0 mi East 18.4 mph - N/A   Light Drizzle
4:15 PM 42.8 °F 38.0 °F 42.8 °F 100% 30.02 in 5.0 mi North 8.1 mph 18.4 mph N/A   Overcast
4:35 PM 42.8 °F 36.6 °F 42.8 °F 100% 30.03 in 5.0 mi North 11.5 mph - N/A   Overcast
4:55 PM 42.8 °F 35.4 °F 39.2 °F 87% 30.03 in 7.0 mi NNE 15.0 mph - N/A   Overcast
5:15 PM 42.8 °F 37.0 °F 39.2 °F 87% 30.03 in 9.0 mi NE 10.4 mph 16.1 mph N/A   Overcast
5:35 PM 42.8 °F 35.8 °F 39.2 °F 87% 30.03 in 9.0 mi NE 13.8 mph 21.9 mph N/A   Overcast
5:55 PM 42.8 °F 36.6 °F 37.4 °F 81% 30.04 in 10.0 mi NNE 11.5 mph - N/A   Overcast
6:15 PM 42.8 °F 36.6 °F 37.4 °F 81% 30.03 in 10.0 mi ENE 11.5 mph 17.3 mph N/A   Overcast
6:35 PM 42.8 °F 37.0 °F 35.6 °F 76% 30.02 in 10.0 mi ENE 10.4 mph 16.1 mph N/A   Overcast
6:55 PM 42.8 °F 37.0 °F 35.6 °F 76% 30.03 in 10.0 mi ENE 10.4 mph 16.1 mph N/A   Overcast
7:15 PM 42.8 °F 37.5 °F 35.6 °F 76% 30.03 in 10.0 mi ENE 9.2 mph 17.3 mph N/A   Overcast
7:35 PM 42.8 °F 36.6 °F 35.6 °F 76% 30.03 in 10.0 mi ENE 11.5 mph - N/A   Overcast
7:55 PM 42.8 °F 36.6 °F 35.6 °F 76% 30.01 in 10.0 mi ENE 11.5 mph 16.1 mph N/A   Overcast
8:15 PM 42.8 °F 36.6 °F 35.6 °F 76% 30.01 in 10.0 mi ENE 11.5 mph 18.4 mph N/A   Overcast
8:35 PM 42.8 °F 36.6 °F 35.6 °F 76% 30.03 in 10.0 mi ENE 11.5 mph - N/A   Overcast
8:55 PM 42.8 °F 38.0 °F 35.6 °F 76% 30.02 in 10.0 mi ENE 8.1 mph - N/A   Overcast
9:15 PM 42.8 °F 38.0 °F 35.6 °F 76% 30.00 in 10.0 mi NE 8.1 mph - N/A   Overcast
9:35 PM 42.8 °F 37.0 °F 35.6 °F 76% 30.00 in 10.0 mi ENE 10.4 mph - N/A   Overcast
9:55 PM 44.6 °F 40.2 °F 35.6 °F 71% 30.00 in 10.0 mi ENE 8.1 mph - N/A   Overcast
10:15 PM 42.8 °F 38.6 °F 35.6 °F 76% 29.99 in 10.0 mi NE 6.9 mph - N/A   Overcast
10:35 PM 42.8 °F 37.5 °F 35.6 °F 76% 29.98 in 10.0 mi NE 9.2 mph - N/A   Overcast
10:55 PM 42.8 °F 37.0 °F 35.6 °F 76% 29.98 in 10.0 mi NE 10.4 mph - N/A   Overcast
11:15 PM 42.8 °F 37.5 °F 35.6 °F 76% 29.97 in 10.0 mi NE 9.2 mph - N/A   Overcast
11:35 PM 42.8 °F 37.5 °F 37.4 °F 81% 29.98 in 10.0 mi ENE 9.2 mph - N/A   Overcast
11:55 PM 42.8 °F 38.6 °F 37.4 °F 81% 29.96 in 10.0 mi ENE 6.9 mph - N/A   Overcast